Location: Unspecified
(0.0000°N, 0.0000°E)
Time: 00:09:01
(UTC+00:00)

STARLINK-35415 - Pass Details

Date: 23 December 2025
Orbit: 474 x 476 km, 53.2° (Epoch: 13 January)

Event Time Altitude Azimuth Distance (km) Brightness Sun altitude
Rises 18:18:36 0° 224° (SW) 2,513 7.5 -4.4°
Reaches altitude 10° 18:20:49 10° 230° (SW) 1,634 6.6 -4.9°
Maximum altitude 18:24:21 45° 304° (WNW) 653 3.3 -5.7°
Drops below altitude 10° 18:27:52 10° 17° (NNE) 1,626 4.6 -6.5°
Enters shadow 18:29:45 - 23° (NNE) 2,371 5.4 -7.0°
